Regional Weather Roundup
Issued by NWS

Home | Current Version | Previous Version | Graphics & Text | Print | Product List | Glossary On
Versions: 1 2 3 4 5 6 7 8 9 10 11 12 13 14 15 16 17 18 19 20 21 22 23 24 25 26 27 28 29 30 31 32 33 34 35 36 37 38 39 40 41 42 43 44 45 46 47 48 49 50
000
ASUS44 KMEG 071300
RWRTN
TENNESSEE HOURLY STATE WEATHER ROUNDUP
NATIONAL WEATHER SERVICE MEMPHIS TN
700 AM CST WED DEC 07 2016

TNZ002-004-019-021-049-052-054-088>092-071400-
WEST TENNESSEE

CITY           SKY/WX    TMP DP  RH WIND       PRES   REMARKS
MEMPHIS INTL   CLOUDY    41  36  82 NE10      30.16R
NWS MEMPHIS      N/A     40 N/A N/A MISG        N/A
JACKSON        MOCLDY    35  34  96 N5        30.17R FOG     WCI  31
DYERSBURG      CLOUDY   N/A N/A N/A NE8       30.18S
UNION CITY     CLEAR     32  30  93 N7        30.18R WCI  26
PARIS          MOCLDY    30  30 100 N5        30.18R WCI  25
LEXINGTON      MOCLDY    36  34  93 CALM      30.14S
$$

TNZ008-025-027-028-033-062-065-066-071400-
NORTH MIDDLE TENNESSEE

CITY           SKY/WX    TMP DP  RH WIND       PRES   REMARKS
NASHVILLE      PTCLDY    36  32  85 N5        30.16R WCI  32
CLARKSVILLE    CLEAR     31  29  92 N7        30.17R FOG     WCI  24
SMYRNA         CLOUDY    36  33  89 N7        30.16R WCI  30
CROSSVILLE     MOCLDY    36  33  89 NE3       30.08R
$$

TNZ061-075-076-078-094-096-097-071400-
SOUTH MIDDLE TENNESSEE

CITY           SKY/WX    TMP DP  RH WIND       PRES   REMARKS
TULLAHOMA      CLOUDY    37  36  93 N5        30.09S WCI  34
WINCHESTER     CLOUDY    39  36  87 N5        30.09S
MCMINNVILLE    MOCLDY    39  37  93 N5          N/A
SHELBYVILLE    CLOUDY    39  37  93 N9        30.13R WCI  33
$$

TNZ017-018-042-046-047-071400-
NORTHEAST TENNESSEE

CITY           SKY/WX    TMP DP  RH WIND       PRES   REMARKS
TRI CITIES     PTCLDY    36  33  89 W3        30.09R
$$

TNZ012-013-036-069-073-074-071400-
CENTRAL EAST TENNESSEE

CITY           SKY/WX    TMP DP  RH WIND       PRES   REMARKS
KNOXVILLE      CLOUDY    43  35  73 N7        30.08R
OAK RIDGE      PTCLDY    40  35  83 CALM      30.11R
GATLINBURG     CLOUDY    43  37  81 E5        30.09R
$$

TNZ083-085-099-071400-
SOUTHEAST TENNESSEE

CITY           SKY/WX    TMP DP  RH WIND       PRES   REMARKS
CHATTANOOGA    MOCLDY    44  37  76 N7        30.08R
$$

SKY/WX REPORTED AS FAIR MEANS FEW OR NO CLOUDS BELOW
12 THOUSAND FEET.





USA.gov is the U.S. government's official web portal to all federal, state and local government web resources and services.